,,PA_Meas_PMT16A,,PR_Meas_QMR101_102,,RH_Meas_QMH101,,SR_Meas_QMS101,,TA_Meas_QMH101,,GenWind,,GenWind,
time,status,PA,status,PR,status,RH,status,SR,status,TA,status,DirAvg,status,SpdAvg,
2012-07-08, 00:00:04,VALID,915.516,VALID,0,VALID,90.5509,VALID,0.107441,VALID,19.4118,VALID,14,VALID,0,
2012-07-08, 00:01:04,VALID,915.486,VALID,0,VALID,90.5204,VALID,0,VALID,19.4313,VALID,15,VALID,0,
2012-07-08, 00:02:04,VALID,915.529,VALID,0,VALID,90.2079,VALID,0.107441,VALID,19.4508,VALID,15,VALID,0,
2012-07-08, 00:03:04,VALID,915.529,VALID,0,VALID,90.0935,VALID,0,VALID,19.4088,VALID,15,VALID,0,
2012-07-08, 00:04:04,VALID,915.551,VALID,0,VALID,89.8877,VALID,0.107441,VALID,19.4118,VALID,15,VALID,0,
2012-07-08, 00:05:04,VALID,915.56,VALID,0,VALID,90.3222,VALID,0.107441,VALID,19.4118,VALID,15,VALID,0,
2012-07-08, 00:06:04,VALID,915.577,VALID,0,VALID,90.9931,VALID,0.107441,VALID,19.4313,VALID,15,VALID,0,
2012-07-08, 00:07:04,VALID,915.585,VALID,0,VALID,90.8711,VALID,0,VALID,19.4703,VALID,15,VALID,0,
2012-07-08, 00:08:04,VALID,915.549,VALID,0,VALID,90.4823,VALID,0.107441,VALID,19.4898,VALID,15,VALID,0,
2012-07-08, 00:09:04,VALID,915.562,VALID,0,VALID,90.1316,VALID,0.107441,VALID,19.4898,VALID,15,VALID,0,
2012-07-08, 00:10:04,VALID,915.546,VALID,0,VALID,90.2155,VALID,0,VALID,19.5108,VALID,15,VALID,0,
2012-07-08, 00:11:04,VALID,915.559,VALID,0,VALID,90.0707,VALID,0,VALID,19.5288,VALID,15,VALID,0,
2012-07-08, 00:12:04,VALID,915.543,VALID,0,VALID,89.8877,VALID,0,VALID,19.5888,VALID,15,VALID,0,
2012-07-08, 00:13:04,VALID,915.577,VALID,0,VALID,89.6742,VALID,0,VALID,19.6083,VALID,15,VALID,0,
2012-07-08, 00:14:04,VALID,915.57,VALID,0,VALID,89.5904,VALID,0,VALID,19.6083,VALID,15,VALID,0,
2012-07-08, 00:15:04,VALID,915.565,VALID,0,VALID,89.5142,VALID,0,VALID,19.6278,VALID,15,VALID,0,
2012-07-08, 00:16:04,VALID,915.602,VALID,0,VALID,89.4227,VALID,0,VALID,19.6278,VALID,15,VALID,0,
2012-07-08, 00:17:04,VALID,915.607,VALID,0,VALID,89.4837,VALID,0,VALID,19.6068,VALID,15,VALID,0,
2012-07-08, 00:18:04,VALID,915.627,VALID,0,VALID,89.6133,VALID,0,VALID,19.6278,VALID,15,VALID,0,
2012-07-08, 00:19:04,VALID,915.675,VALID,0,VALID,89.6209,VALID,0,VALID,19.6083,VALID,15,VALID,0,
2012-07-08, 00:20:04,VALID,915.677,VALID,0,VALID,89.7886,VALID,0,VALID,19.5888,VALID,15,VALID,0,
2012-07-08, 00:21:04,VALID,915.703,VALID,0,VALID,89.8343,VALID,0,VALID,19.5693,VALID,15,VALID,0,
2012-07-08, 00:22:04,VALID,915.672,VALID,0,VALID,89.9182,VALID,0,VALID,19.5483,VALID,15,VALID,0,
2012-07-08, 00:23:04,VALID,915.688,VALID,0,VALID,90.1926,VALID,0,VALID,19.5093,VALID,15,VALID,0,
2012-07-08, 00:24:04,VALID,915.673,VALID,0,VALID,90.0707,VALID,0,VALID,19.5108,VALID,15,VALID,0,
2012-07-08, 00:25:04,VALID,915.679,VALID,0,VALID,89.8343,VALID,0,VALID,19.5303,VALID,15,VALID,0,
2012-07-08, 00:26:04,VALID,915.669,VALID,0,VALID,89.6361,VALID,0,VALID,19.5108,VALID,15,VALID,0,
2012-07-08, 00:27:04,VALID,915.668,VALID,0,VALID,89.3617,VALID,0,VALID,19.5303,VALID,15,VALID,0,
2012-07-08, 00:28:04,VALID,915.687,VALID,0,VALID,89.2092,VALID,0,VALID,19.5483,VALID,15,VALID,0,
2012-07-08, 00:29:04,VALID,915.675,VALID,0,VALID,89.0567,VALID,0,VALID,19.6293,VALID,15,VALID,0,
2012-07-08, 00:30:04,VALID,915.703,VALID,0,VALID,88.9881,VALID,0,VALID,19.6278,VALID,15,VALID,0,
2012-07-08, 00:31:04,VALID,915.714,VALID,0,VALID,89.133,VALID,0,VALID,19.6098,VALID,15,VALID,0,
2012-07-08, 00:32:04,VALID,915.724,VALID,0,VALID,89.415,VALID,0,VALID,19.5693,VALID,15,VALID,0,
2012-07-08, 00:33:04,VALID,915.752,VALID,0,VALID,89.6971,VALID,0,VALID,19.5108,VALID,15,VALID,0,
2012-07-08, 00:34:04,VALID,915.78,VALID,0,VALID,90.0021,VALID,0,VALID,19.4508,VALID,15,VALID,0,
2012-07-08, 00:35:04,VALID,915.812,VALID,0,VALID,90.2689,VALID,0,VALID,19.3937,VALID,15,VALID,0,
2012-07-08, 00:36:04,VALID,915.774,VALID,0,VALID,90.6348,VALID,0,VALID,19.3157,VALID,15,VALID,0,
2012-07-08, 00:37:04,VALID,915.824,VALID,0,VALID,90.8483,VALID,0,VALID,19.2962,VALID,15,VALID,0,
2012-07-08, 00:38:04,VALID,915.833,VALID,0,VALID,90.7034,VALID,0,VALID,19.3352,VALID,15,VALID,0,
2012-07-08, 00:39:04,VALID,915.824,VALID,0,VALID,90.7187,VALID,0,VALID,19.2767,VALID,15,VALID,0,
2012-07-08, 00:40:04,VALID,915.823,VALID,0,VALID,90.9092,VALID,0,VALID,19.2767,VALID,15,VALID,0,
2012-07-08, 00:41:04,VALID,915.795,VALID,0,VALID,90.9855,VALID,0,VALID,19.2767,VALID,15,VALID,0,
2012-07-08, 00:42:04,VALID,915.782,VALID,0,VALID,91.1608,VALID,0,VALID,19.2753,VALID,15,VALID,0,
2012-07-08, 00:43:04,VALID,915.744,VALID,0,VALID,91.077,VALID,0,VALID,19.3547,VALID,15,VALID,0,
2012-07-08, 00:44:04,VALID,915.744,VALID,0,VALID,90.8635,VALID,0,VALID,19.3937,VALID,15,VALID,0,
2012-07-08, 00:45:04,VALID,915.733,VALID,0,VALID,90.6119,VALID,0,VALID,19.4718,VALID,15,VALID,0,
2012-07-08, 00:46:04,VALID,915.717,VALID,0,VALID,90.3375,VALID,0,VALID,19.5108,VALID,15,VALID,0,
2012-07-08, 00:47:04,VALID,915.674,VALID,0,VALID,90.3451,VALID,0,VALID,19.5108,VALID,15,VALID,0,
2012-07-08, 00:48:04,VALID,915.663,VALID,0,VALID,90.4213,VALID,0,VALID,19.5108,VALID,15,VALID,0,
2012-07-08, 00:49:04,VALID,915.612,VALID,0,VALID,90.6195,VALID,0,VALID,19.4913,VALID,15,VALID,0,
2012-07-08, 00:50:04,VALID,915.577,VALID,0,VALID,90.8101,VALID,0,VALID,19.4523,VALID,15,VALID,0,
2012-07-08, 00:51:04,VALID,915.554,VALID,0,VALID,90.6272,VALID,0,VALID,19.4313,VALID,15,VALID,0,
2012-07-08, 00:52:04,VALID,915.507,VALID,0,VALID,90.3756,VALID,0,VALID,19.4523,VALID,15,VALID,0,
2012-07-08, 00:53:04,VALID,915.454,VALID,0,VALID,90.3756,VALID,0,VALID,19.4913,VALID,15,VALID,0,
2012-07-08, 00:54:04,VALID,915.419,VALID,0,VALID,90.0707,VALID,0,VALID,19.5108,VALID,15,VALID,0,
2012-07-08, 00:55:04,VALID,915.414,VALID,0,VALID,89.4913,VALID,0,VALID,19.5498,VALID,15,VALID,0,
2012-07-08, 00:56:04,VALID,915.412,VALID,0,VALID,89.0491,VALID,0,VALID,19.6083,VALID,15,VALID,0,
2012-07-08, 00:57:04,VALID,915.414,VALID,0,VALID,88.7518,VALID,0,VALID,19.6473,VALID,15,VALID,0,
2012-07-08, 00:58:04,VALID,915.405,VALID,0,VALID,88.5612,VALID,0,VALID,19.6473,VALID,15,VALID,0,
2012-07-08, 00:59:04,VALID,915.354,VALID,0,VALID,88.424,VALID,0,VALID,19.6668,VALID,15,VALID,0,
2012-07-08, 01:00:04,VALID,915.328,VALID,0,VALID,88.0352,VALID,0,VALID,19.6458,VALID,15,VALID,0,
2012-07-08, 01:01:04,VALID,915.272,VALID,0,VALID,87.4787,VALID,0,VALID,19.7448,VALID,15,VALID,0,
2012-07-08, 01:02:04,VALID,915.288,VALID,0,VALID,87.1433,VALID,0,VALID,19.8018,VALID,15,VALID,0,
2012-07-08, 01:03:04,VALID,915.218,VALID,0,VALID,86.8612,VALID,0,VALID,19.8618,VALID,15,VALID,0,
2012-07-08, 01:04:04,VALID,915.223,VALID,0,VALID,86.419,VALID,0,VALID,19.9008,VALID,15,VALID,0,
2012-07-08, 01:05:04,VALID,915.181,VALID,0,VALID,86.4953,VALID,0,VALID,19.9593,VALID,15,VALID,0,
2012-07-08, 01:06:04,VALID,915.182,VALID,0,VALID,86.3428,VALID,0,VALID,19.9984,VALID,15,VALID,0,
2012-07-08, 01:07:04,VALID,915.164,VALID,0,VALID,85.9845,VALID,0,VALID,20.0179,VALID,15,VALID,0,
2012-07-08, 01:08:04,VALID,915.159,VALID,0,VALID,86.015,VALID,0,VALID,20.0569,VALID,15,VALID,0,
2012-07-08, 01:09:04,VALID,915.114,VALID,0,VALID,85.6338,VALID,0,VALID,20.0764,VALID,15,VALID,0,
2012-07-08, 01:10:04,VALID,915.126,VALID,0,VALID,85.8778,VALID,0,VALID,20.0749,VALID,15,VALID,0,
2012-07-08, 01:11:04,VALID,915.146,VALID,0,VALID,85.9083,VALID,0,VALID,20.1154,VALID,15,VALID,0,
2012-07-08, 01:12:04,VALID,915.135,VALID,0,VALID,85.7024,VALID,0,VALID,20.0959,VALID,15,VALID,0,
2012-07-08, 01:13:04,VALID,915.092,VALID,0,VALID,85.8244,VALID,0,VALID,20.0959,VALID,15,VALID,0,
2012-07-08, 01:14:04,VALID,915.105,VALID,0,VALID,85.5424,VALID,0,VALID,20.0764,VALID,15,VALID,0,
2012-07-08, 01:15:04,VALID,915.078,VALID,0,VALID,85.8625,VALID,0,VALID,20.0959,VALID,15,VALID,0,
2012-07-08, 01:16:04,VALID,915.093,VALID,0,VALID,86.9451,VALID,0,VALID,20.0764,VALID,15,VALID,0,
2012-07-08, 01:17:04,VALID,915.093,VALID,0,VALID,86.5334,VALID,0,VALID,20.0374,VALID,15,VALID,0,
2012-07-08, 01:18:04,VALID,915.047,VALID,0,VALID,86.5258,VALID,0,VALID,19.9788,VALID,15,VALID,0,
2012-07-08, 01:19:04,VALID,915.034,VALID,0,VALID,87.1585,VALID,0,VALID,19.9593,VALID,15,VALID,0,
2012-07-08, 01:20:04,VALID,915.005,VALID,0,VALID,87.3643,VALID,0,VALID,19.8618,VALID,15,VALID,0,
2012-07-08, 01:21:04,VALID,914.963,VALID,0,VALID,88.2563,VALID,0,VALID,19.7643,VALID,15,VALID,0,
2012-07-08, 01:22:04,VALID,914.909,VALID,0,VALID,88.5917,VALID,0,VALID,19.6083,VALID,15,VALID,0,
2012-07-08, 01:23:04,VALID,914.891,VALID,0,VALID,89.0034,VALID,0,VALID,19.5498,VALID,15,VALID,0,
2012-07-08, 01:24:04,VALID,914.881,VALID,0,VALID,89.011,VALID,0,VALID,19.4703,VALID,15,VALID,0,
2012-07-08, 01:25:04,VALID,914.859,VALID,0,VALID,89.2092,VALID,0,VALID,19.4718,VALID,15,VALID,0,
2012-07-08, 01:26:04,VALID,914.864,VALID,0,VALID,89.2397,VALID,0,VALID,19.4327,VALID,15,VALID,0,
2012-07-08, 01:27:04,VALID,914.847,VALID,0,VALID,89.2702,VALID,0,VALID,19.4327,VALID,15,VALID,0,
2012-07-08, 01:28:04,VALID,914.829,VALID,0,VALID,89.4303,VALID,0,VALID,19.4327,VALID,15,VALID,0,
2012-07-08, 01:29:04,VALID,914.833,VALID,0,VALID,89.3236,VALID,0,VALID,19.4132,VALID,15,VALID,0,
2012-07-08, 01:30:04,VALID,914.844,VALID,0,VALID,89.2778,VALID,0,VALID,19.4313,VALID,15,VALID,0,
2012-07-08, 01:31:04,VALID,914.831,VALID,0,VALID,89.1177,VALID,0,VALID,19.4913,VALID,15,VALID,0,
2012-07-08, 01:32:04,VALID,914.817,VALID,0,VALID,89.3769,VALID,0,VALID,19.5108,VALID,15,VALID,0,
2012-07-08, 01:33:04,VALID,914.82,VALID,0,VALID,89.476,VALID,0,VALID,19.5498,VALID,15,VALID,0,
2012-07-08, 01:34:04,VALID,914.801,VALID,0,VALID,89.3769,VALID,0,VALID,19.5498,VALID,15,VALID,0,
2012-07-08, 01:35:04,VALID,914.797,VALID,0,VALID,89.3388,VALID,0,VALID,19.5303,VALID,15,VALID,0,
2012-07-08, 01:36:04,VALID,914.786,VALID,0,VALID,89.476,VALID,0,VALID,19.5317,VALID,15,VALID,0,
2012-07-08, 01:37:04,VALID,914.798,VALID,0,VALID,89.5065,VALID,0,VALID,19.5108,VALID,15,VALID,0,
2012-07-08, 01:38:04,VALID,914.803,VALID,0,VALID,89.5142,VALID,0,VALID,19.5303,VALID,15,VALID,0,
2012-07-08, 01:39:04,VALID,914.85,VALID,0,VALID,89.3388,VALID,0,VALID,19.5693,VALID,15,VALID,0,
2012-07-08, 01:40:04,VALID,914.829,VALID,0,VALID,89.2245,VALID,0.107441,VALID,19.5483,VALID,15,VALID,0,
2012-07-08, 01:41:04,VALID,914.854,VALID,0,VALID,89.7047,VALID,0.107441,VALID,19.5093,VALID,15,VALID,0,
2012-07-08, 01:42:04,VALID,914.855,VALID,0,VALID,89.72,VALID,0,VALID,19.4898,VALID,15,VALID,0,
2012-07-08, 01:43:04,VALID,914.9,VALID,0,VALID,89.4608,VALID,0,VALID,19.4703,VALID,15,VALID,0,
2012-07-08, 01:44:04,VALID,914.895,VALID,0,VALID,89.2931,VALID,0,VALID,19.5093,VALID,15,VALID,0,
2012-07-08, 01:45:04,VALID,914.908,VALID,0,VALID,89.3007,VALID,0.107441,VALID,19.5288,VALID,15,VALID,0,
2012-07-08, 01:46:04,VALID,914.931,VALID,0,VALID,89.2473,VALID,0.107441,VALID,19.5093,VALID,15,VALID,0,
2012-07-08, 01:47:04,VALID,914.901,VALID,0,VALID,89.1177,VALID,0,VALID,19.5288,VALID,15,VALID,0,
2012-07-08, 01:48:04,VALID,914.908,VALID,0,VALID,89.2092,VALID,0,VALID,19.5288,VALID,15,VALID,0,
2012-07-08, 01:49:04,VALID,914.92,VALID,0,VALID,89.5904,VALID,0.107441,VALID,19.5093,VALID,15,VALID,0,
2012-07-08, 01:50:04,VALID,914.895,VALID,0,VALID,89.6361,VALID,0.107441,VALID,19.4508,VALID,15,VALID,0,
2012-07-08, 01:51:04,VALID,914.888,VALID,0,VALID,89.7352,VALID,0,VALID,19.4132,VALID,15,VALID,0,
2012-07-08, 01:52:04,VALID,914.887,VALID,0,VALID,89.8572,VALID,0,VALID,19.3533,VALID,15,VALID,0,
2012-07-08, 01:53:04,VALID,914.86,VALID,0,VALID,90.0173,VALID,0,VALID,19.3338,VALID,15,VALID,0,
2012-07-08, 01:54:04,VALID,914.872,VALID,0,VALID,90.246,VALID,0.107441,VALID,19.2948,VALID,15,VALID,0,
2012-07-08, 01:55:04,VALID,914.862,VALID,0,VALID,90.4899,VALID,0,VALID,19.2572,VALID,15,VALID,0,
2012-07-08, 01:56:04,VALID,914.845,VALID,0,VALID,90.7491,VALID,0,VALID,19.2392,VALID,15,VALID,0,
2012-07-08, 01:57:04,VALID,914.867,VALID,0,VALID,91.3514,VALID,0,VALID,19.1987,VALID,15,VALID,0,
2012-07-08, 01:58:04,VALID,914.845,VALID,0,VALID,91.6106,VALID,0,VALID,19.1807,VALID,15,VALID,0,
2012-07-08, 01:59:04,VALID,914.842,VALID,0,VALID,91.9765,VALID,0,VALID,19.1012,VALID,15,VALID,0,
2012-07-08, 02:00:04,VALID,914.827,VALID,0,VALID,92.1976,VALID,0,VALID,19.1027,VALID,15,VALID,0,
2012-07-08, 02:01:04,VALID,914.799,VALID,0,VALID,92.3501,VALID,0,VALID,19.0637,VALID,15,VALID,0,
2012-07-08, 02:02:04,VALID,914.812,VALID,0,VALID,92.3043,VALID,0,VALID,19.0427,VALID,15,VALID,0,
2012-07-08, 02:03:04,VALID,914.799,VALID,0,VALID,92.1442,VALID,0,VALID,19.0622,VALID,15,VALID,0,
2012-07-08, 02:04:04,VALID,914.817,VALID,0,VALID,91.5953,VALID,0,VALID,19.1012,VALID,15,VALID,0,
2012-07-08, 02:05:04,VALID,914.81,VALID,0,VALID,91.0312,VALID,0,VALID,19.1792,VALID,15,VALID,0,
2012-07-08, 02:06:04,VALID,914.839,VALID,0,VALID,90.4366,VALID,0,VALID,19.2377,VALID,15,VALID,0,
2012-07-08, 02:07:04,VALID,914.861,VALID,0,VALID,89.9716,VALID,0,VALID,19.2962,VALID,90,VALID,0,
2012-07-08, 02:08:04,VALID,914.887,VALID,0,VALID,89.1635,VALID,0,VALID,19.3352,VALID,95,VALID,0,
2012-07-08, 02:09:04,VALID,914.892,VALID,0,VALID,88.6832,VALID,0,VALID,19.4523,VALID,95,VALID,0,
2012-07-08, 02:10:04,VALID,914.9,VALID,0,VALID,88.5688,VALID,0,VALID,19.4718,VALID,95,VALID,0,
2012-07-08, 02:11:04,VALID,914.899,VALID,0,VALID,88.5079,VALID,0,VALID,19.5317,VALID,95,VALID,0,
2012-07-08, 02:12:04,VALID,914.912,VALID,0,VALID,89.2092,VALID,0,VALID,19.4913,VALID,125,VALID,0,
2012-07-08, 02:13:04,VALID,914.86,VALID,0,VALID,89.7733,VALID,0,VALID,19.4147,VALID,120,VALID,0,
2012-07-08, 02:14:04,VALID,914.896,VALID,0,VALID,90.4213,VALID,0,VALID,19.3352,VALID,120,VALID,0,
2012-07-08, 02:15:04,VALID,914.878,VALID,0,VALID,91.0846,VALID,0,VALID,19.2572,VALID,120,VALID,0,
2012-07-08, 02:16:04,VALID,914.884,VALID,0,VALID,91.7631,VALID,0,VALID,19.2002,VALID,125,VALID,0,
2012-07-08, 02:17:04,VALID,914.857,VALID,0,VALID,92.5178,VALID,0,VALID,19.1178,VALID,141,VALID,0,
2012-07-08, 02:18:04,VALID,914.844,VALID,0,VALID,92.8608,VALID,0,VALID,19.1012,VALID,141,VALID,0,
2012-07-08, 02:19:04,VALID,914.83,VALID,0,VALID,93.1276,VALID,0,VALID,19.0622,VALID,137,VALID,0,
2012-07-08, 02:20:04,VALID,914.783,VALID,0,VALID,93.2496,VALID,0,VALID,19.0232,VALID,137,VALID,0,
2012-07-08, 02:21:04,VALID,914.793,VALID,0,VALID,93.3564,VALID,0,VALID,19.0232,VALID,137,VALID,0,
2012-07-08, 02:22:04,VALID,914.75,VALID,0,VALID,93.4402,VALID,0,VALID,19.0232,VALID,137,VALID,0,
2012-07-08, 02:23:04,VALID,914.744,VALID,0,VALID,93.5164,VALID,0,VALID,19.0232,VALID,137,VALID,0,
2012-07-08, 02:24:04,VALID,914.732,VALID,0,VALID,93.4402,VALID,0,VALID,19.0232,VALID,137,VALID,0,
2012-07-08, 02:25:04,VALID,914.709,VALID,0,VALID,93.4859,VALID,0,VALID,19.0232,VALID,137,VALID,0,
2012-07-08, 02:26:04,VALID,914.668,VALID,0,VALID,93.2496,VALID,0,VALID,19.0232,VALID,137,VALID,0,
2012-07-08, 02:27:04,VALID,914.699,VALID,0,VALID,93.0209,VALID,0,VALID,19.0442,VALID,137,VALID,0,
2012-07-08, 02:28:04,VALID,914.671,VALID,0,VALID,92.777,VALID,0,VALID,19.0427,VALID,137,VALID,0,
2012-07-08, 02:29:04,VALID,914.685,VALID,0,VALID,92.3043,VALID,0,VALID,19.0832,VALID,137,VALID,0,
2012-07-08, 02:30:04,VALID,914.694,VALID,0,VALID,91.8469,VALID,0,VALID,19.1222,VALID,137,VALID,0,
2012-07-08, 02:31:04,VALID,914.676,VALID,0,VALID,91.4276,VALID,0,VALID,19.1402,VALID,137,VALID,0,
2012-07-08, 02:32:04,VALID,914.671,VALID,0,VALID,90.8787,VALID,0,VALID,19.2002,VALID,137,VALID,0,
2012-07-08, 02:33:04,VALID,914.667,VALID,0,VALID,90.955,VALID,0,VALID,19.2377,VALID,137,VALID,0,
2012-07-08, 02:34:04,VALID,914.675,VALID,0,VALID,90.8254,VALID,0,VALID,19.2377,VALID,137,VALID,0,
2012-07-08, 02:35:04,VALID,914.694,VALID,0,VALID,90.5052,VALID,0,VALID,19.2587,VALID,137,VALID,0,
2012-07-08, 02:36:04,VALID,914.68,VALID,0,VALID,89.7657,VALID,0,VALID,19.2377,VALID,137,VALID,0,
2012-07-08, 02:37:04,VALID,914.698,VALID,0,VALID,89.5065,VALID,0,VALID,19.2977,VALID,137,VALID,0,
2012-07-08, 02:38:04,VALID,914.691,VALID,0,VALID,89.5599,VALID,0,VALID,19.2767,VALID,137,VALID,0,
2012-07-08, 02:39:04,VALID,914.696,VALID,0,VALID,89.5904,VALID,0,VALID,19.2782,VALID,137,VALID,0,
2012-07-08, 02:40:04,VALID,914.716,VALID,0,VALID,90.0554,VALID,0,VALID,19.2782,VALID,137,VALID,0,
2012-07-08, 02:41:04,VALID,914.72,VALID,0,VALID,90.4747,VALID,0,VALID,19.2197,VALID,137,VALID,0,
2012-07-08, 02:42:04,VALID,914.745,VALID,0,VALID,90.6882,VALID,0,VALID,19.1597,VALID,137,VALID,0,
2012-07-08, 02:43:04,VALID,914.75,VALID,0,VALID,90.8559,VALID,0,VALID,19.1402,VALID,137,VALID,0,
2012-07-08, 02:44:04,VALID,914.747,VALID,0,VALID,91.1456,VALID,0,VALID,19.1222,VALID,137,VALID,0,
2012-07-08, 02:45:04,VALID,914.75,VALID,0,VALID,91.2142,VALID,0,VALID,19.1012,VALID,137,VALID,0,
2012-07-08, 02:46:04,VALID,914.765,VALID,0,VALID,91.5039,VALID,0,VALID,19.1012,VALID,137,VALID,0,
2012-07-08, 02:47:04,VALID,914.767,VALID,0,VALID,91.9155,VALID,0,VALID,19.1012,VALID,137,VALID,0,
2012-07-08, 02:48:04,VALID,914.756,VALID,0.2,VALID,92.3424,VALID,0,VALID,19.0817,VALID,137,VALID,0,
2012-07-08, 02:49:04,VALID,914.761,VALID,0,VALID,92.2052,VALID,0,VALID,19.0817,VALID,137,VALID,0,
2012-07-08, 02:50:04,VALID,914.783,VALID,0,VALID,92.4873,VALID,0,VALID,19.0832,VALID,137,VALID,0,
2012-07-08, 02:51:04,VALID,914.767,VALID,0,VALID,92.4034,VALID,0,VALID,19.0037,VALID,137,VALID,0,
2012-07-08, 02:52:04,VALID,914.759,VALID,0,VALID,92.533,VALID,0,VALID,18.9662,VALID,137,VALID,0,
2012-07-08, 02:53:04,VALID,914.721,VALID,0,VALID,92.655,VALID,0,VALID,18.9062,VALID,137,VALID,0,
2012-07-08, 02:54:04,VALID,914.725,VALID,0,VALID,92.533,VALID,0,VALID,18.8672,VALID,137,VALID,0,
2012-07-08, 02:55:04,VALID,914.738,VALID,0,VALID,92.6855,VALID,0,VALID,18.8477,VALID,137,VALID,0,
2012-07-08, 02:56:04,VALID,914.725,VALID,0,VALID,92.8227,VALID,0,VALID,18.8087,VALID,137,VALID,0,
2012-07-08, 02:57:04,VALID,914.733,VALID,0.2,VALID,93.12,VALID,0,VALID,18.8102,VALID,137,VALID,0,
2012-07-08, 02:58:04,VALID,914.723,VALID,0,VALID,93.303,VALID,0,VALID,18.7892,VALID,137,VALID,0,
2012-07-08, 02:59:04,VALID,914.71,VALID,0,VALID,93.4173,VALID,0,VALID,18.7907,VALID,137,VALID,0,
2012-07-08, 03:00:04,VALID,914.789,VALID,0,VALID,93.3868,VALID,0,VALID,18.7517,VALID,137,VALID,0,
2012-07-08, 03:01:04,VALID,914.75,VALID,0,VALID,93.8214,VALID,0,VALID,18.7488,VALID,137,VALID,0,
2012-07-08, 03:02:04,VALID,914.772,VALID,0,VALID,93.89,VALID,0,VALID,18.7907,VALID,137,VALID,0,
2012-07-08, 03:03:04,VALID,914.785,VALID,0.2,VALID,93.7909,VALID,0,VALID,18.7503,VALID,137,VALID,0,
2012-07-08, 03:04:04,VALID,914.763,VALID,0,VALID,93.9815,VALID,0,VALID,18.7503,VALID,137,VALID,0,
2012-07-08, 03:05:04,VALID,914.805,VALID,0,VALID,94.0272,VALID,0,VALID,18.7503,VALID,137,VALID,0,
2012-07-08, 03:06:04,VALID,914.792,VALID,0,VALID,93.8824,VALID,0,VALID,18.7322,VALID,137,VALID,0,
2012-07-08, 03:07:04,VALID,914.819,VALID,0,VALID,93.8519,VALID,0,VALID,18.7127,VALID,137,VALID,0,
2012-07-08, 03:08:04,VALID,914.826,VALID,0,VALID,93.7604,VALID,0,VALID,18.7336,VALID,137,VALID,0,
2012-07-08, 03:09:04,VALID,914.838,VALID,0.2,VALID,93.6613,VALID,0,VALID,18.6918,VALID,137,VALID,0,
2012-07-08, 03:10:04,VALID,914.853,VALID,0,VALID,93.5927,VALID,0,VALID,18.7113,VALID,137,VALID,0,
2012-07-08, 03:11:04,VALID,914.822,VALID,0,VALID,93.5546,VALID,0,VALID,18.7113,VALID,137,VALID,0,
2012-07-08, 03:12:04,VALID,914.819,VALID,0,VALID,93.6308,VALID,0,VALID,18.6918,VALID,137,VALID,0,
2012-07-08, 03:13:04,VALID,914.792,VALID,0.2,VALID,93.7756,VALID,0,VALID,18.7127,VALID,127,VALID,0,
2012-07-08, 03:14:04,VALID,914.822,VALID,0,VALID,93.8976,VALID,0,VALID,18.6737,VALID,127,VALID,0,
2012-07-08, 03:15:04,VALID,914.807,VALID,0,VALID,94.0882,VALID,0,VALID,18.6737,VALID,127,VALID,0,
2012-07-08, 03:16:04,VALID,914.795,VALID,0,VALID,94.2635,VALID,0,VALID,18.6542,VALID,127,VALID,0,
2012-07-08, 03:17:04,VALID,914.807,VALID,0.2,VALID,94.3779,VALID,0,VALID,18.6347,VALID,127,VALID,0,
2012-07-08, 03:18:04,VALID,914.775,VALID,0,VALID,94.5532,VALID,0,VALID,18.6138,VALID,127,VALID,0,
2012-07-08, 03:19:04,VALID,914.772,VALID,0,VALID,94.6828,VALID,0,VALID,18.6138,VALID,127,VALID,0,
2012-07-08, 03:20:04,VALID,914.773,VALID,0,VALID,94.7819,VALID,0,VALID,18.6138,VALID,127,VALID,0,
2012-07-08, 03:21:04,VALID,914.766,VALID,0.2,VALID,94.8353,VALID,0,VALID,18.6152,VALID,127,VALID,0,
2012-07-08, 03:22:04,VALID,914.77,VALID,0,VALID,94.9344,VALID,0,VALID,18.5943,VALID,127,VALID,0,
2012-07-08, 03:23:04,VALID,914.775,VALID,0,VALID,95.1021,VALID,0,VALID,18.6152,VALID,127,VALID,0,
2012-07-08, 03:24:04,VALID,914.761,VALID,0,VALID,95.1783,VALID,0,VALID,18.5943,VALID,127,VALID,0,
2012-07-08, 03:25:04,VALID,914.798,VALID,0.2,VALID,95.2622,VALID,0,VALID,18.5734,VALID,127,VALID,0,
2012-07-08, 03:26:04,VALID,914.786,VALID,0,VALID,95.3232,VALID,0,VALID,18.5748,VALID,127,VALID,0,
2012-07-08, 03:27:04,VALID,914.817,VALID,0,VALID,95.3766,VALID,0,VALID,18.5553,VALID,127,VALID,0,
2012-07-08, 03:28:04,VALID,914.812,VALID,0.2,VALID,95.4223,VALID,0,VALID,18.5358,VALID,127,VALID,0,
2012-07-08, 03:29:04,VALID,914.815,VALID,0,VALID,95.4757,VALID,0,VALID,18.5163,VALID,127,VALID,0,
2012-07-08, 03:30:04,VALID,914.814,VALID,0,VALID,95.4909,VALID,0,VALID,18.5163,VALID,122,VALID,0,
2012-07-08, 03:31:04,VALID,914.784,VALID,0,VALID,95.5062,VALID,0,VALID,18.5163,VALID,120,VALID,0,
2012-07-08, 03:32:04,VALID,914.78,VALID,0.2,VALID,95.5062,VALID,0,VALID,18.5163,VALID,120,VALID,0,
2012-07-08, 03:33:04,VALID,914.779,VALID,0,VALID,95.5367,VALID,0,VALID,18.5163,VALID,117,VALID,0,
2012-07-08, 03:34:04,VALID,914.756,VALID,0,VALID,95.6129,VALID,0,VALID,18.5163,VALID,132,VALID,0,
2012-07-08, 03:35:04,VALID,914.749,VALID,0,VALID,95.6662,VALID,0,VALID,18.5163,VALID,125,VALID,0,
2012-07-08, 03:36:04,VALID,914.763,VALID,0,VALID,95.7577,VALID,0,VALID,18.4968,VALID,137,VALID,0,
2012-07-08, 03:37:04,VALID,914.747,VALID,0.2,VALID,95.8797,VALID,0,VALID,18.5163,VALID,147,VALID,0,
2012-07-08, 03:38:04,VALID,914.735,VALID,0,VALID,95.9636,VALID,0,VALID,18.5358,VALID,146,VALID,0,
2012-07-08, 03:39:04,VALID,914.714,VALID,0,VALID,96.0322,VALID,0,VALID,18.5163,VALID,155,VALID,0,
2012-07-08, 03:40:04,VALID,914.725,VALID,0,VALID,96.0703,VALID,0,VALID,18.5372,VALID,137,VALID,0,
2012-07-08, 03:41:04,VALID,914.705,VALID,0.2,VALID,96.1313,VALID,0,VALID,18.5163,VALID,166,VALID,0,
2012-07-08, 03:42:04,VALID,914.681,VALID,0,VALID,96.1465,VALID,0,VALID,18.5163,VALID,161,VALID,0,
2012-07-08, 03:43:04,VALID,914.672,VALID,0,VALID,96.2151,VALID,0,VALID,18.5149,VALID,161,VALID,0,
2012-07-08, 03:44:04,VALID,914.684,VALID,0,VALID,96.238,VALID,0,VALID,18.5567,VALID,161,VALID,0,
2012-07-08, 03:45:04,VALID,914.663,VALID,0.2,VALID,96.2533,VALID,0,VALID,18.5163,VALID,161,VALID,0,
2012-07-08, 03:46:04,VALID,914.649,VALID,0,VALID,96.2685,VALID,0,VALID,18.5163,VALID,161,VALID,0,
2012-07-08, 03:47:04,VALID,914.667,VALID,0,VALID,96.2533,VALID,0,VALID,18.4968,VALID,161,VALID,0,
2012-07-08, 03:48:04,VALID,914.656,VALID,0,VALID,96.2456,VALID,0,VALID,18.4773,VALID,161,VALID,0,
2012-07-08, 03:49:04,VALID,914.668,VALID,0,VALID,96.2456,VALID,0,VALID,18.4773,VALID,161,VALID,0,
2012-07-08, 03:50:04,VALID,914.685,VALID,0,VALID,96.2609,VALID,0,VALID,18.4578,VALID,161,VALID,0,
2012-07-08, 03:51:04,VALID,914.663,VALID,0,VALID,96.2533,VALID,0,VALID,18.4773,VALID,161,VALID,0,
2012-07-08, 03:52:04,VALID,914.615,VALID,0,VALID,96.2456,VALID,0,VALID,18.4383,VALID,161,VALID,0,
2012-07-08, 03:53:04,VALID,914.611,VALID,0,VALID,96.2228,VALID,0.107441,VALID,18.4383,VALID,118,VALID,0,
2012-07-08, 03:54:04,VALID,914.601,VALID,0.2,VALID,96.2304,VALID,0,VALID,18.4188,VALID,118,VALID,0,
2012-07-08, 03:55:04,VALID,914.58,VALID,0,VALID,96.177,VALID,0,VALID,18.4188,VALID,118,VALID,0,
2012-07-08, 03:56:04,VALID,914.605,VALID,0,VALID,96.1618,VALID,0,VALID,18.3798,VALID,118,VALID,0,
2012-07-08, 03:57:04,VALID,914.579,VALID,0,VALID,96.2228,VALID,0,VALID,18.4007,VALID,118,VALID,0,
2012-07-08, 03:58:04,VALID,914.6,VALID,0,VALID,96.177,VALID,0,VALID,18.3798,VALID,118,VALID,0,
2012-07-08, 03:59:04,VALID,914.594,VALID,0,VALID,96.1923,VALID,0,VALID,18.3603,VALID,118,VALID,0,
2012-07-08, 04:00:04,VALID,914.576,VALID,0,VALID,96.1389,VALID,0,VALID,18.3603,VALID,118,VALID,0,